Regional Weather Roundup
Issued by NWS

Home | Current Version | Previous Version | Graphics & Text | Print | Product List | Glossary On
Versions: 1 2 3 4 5 6 7 8 9 10 11 12 13 14 15 16 17 18 19 20 21 22 23 24 25 26 27 28 29 30 31 32 33 34 35 36 37 38 39 40 41 42 43 44 45 46 47 48 49 50
619
ASUS43 KLSX 252010
RWRMO

WEATHER SUMMARY FOR MISSOURI
NATIONAL WEATHER SERVICE SPRINGFIELD MO
300 PM CDT MON JUL 25 2016

NOTE: "FAIR" INDICATES FEW OR NO CLOUDS BELOW 12,000 FEET WITH NO
       SIGNIFICANT WEATHER AND/OR OBSTRUCTIONS TO VISIBILITY.
       CURRENT SKY AND/OR WEATHER CONDITIONS ARE NOT AVAILABLE FOR
       CHILLICOTHE AND FARMINGTON.

MOZ001>031-035>038-043-044-053-054-252100-
...NORTHERN AND WESTERN MISSOURI...

CITY           SKY/WX    TMP DP  RH WIND       PRES   REMARKS
KANSAS CTY INT CLOUDY    83  71  67 NE12      30.03F
KANSAS C DTWN  PTSUNNY   84  71  65 NE9G20    30.01F
LEE`S SUMMIT   CLOUDY    81  72  74 NE13      30.02F
ST JOSEPH      CLOUDY    87  67  51 NE8       30.04F HX  90
CHILLICOTHE      N/A     88  64  44 N7        30.04F
KIRKSVILLE     MOSUNNY   85  65  51 N6        30.05F

$$
MOZ066>068-077>081-088>096-101>105-252100-
...SOUTHWEST MISSOURI...

CITY           SKY/WX    TMP DP  RH WIND       PRES   REMARKS
SPRINGFIELD    CLOUDY    79  71  76 S5        30.00F
JOPLIN         CLOUDY    82  72  71 VRB3      29.98S
BRANSON        PTSUNNY   81  72  74 S3        30.01F

$$
MOZ032>034-039>042-045>050-055>058-069>072-252100-
...CENTRAL MISSOURI...

CITY           SKY/WX    TMP DP  RH WIND       PRES   REMARKS
COLUMBIA       CLOUDY    82  74  76 N7        30.03F
JEFFERSON CITY CLOUDY    81  72  74 N8        30.01F
ROLLA          CLOUDY    81  72  74 NW8       30.02F
SEDALIA        CLOUDY    80  73  79 N6        30.03F
WHITEMAN AFB   PTSUNNY   80  75  82 NE7       30.01F
OSAGE BEACH    CLOUDY    80  73  79 VRB6      30.02F

$$
MOZ051-052-059>065-252100-
...EAST CENTRAL MISSOURI...

CITY           SKY/WX    TMP DP  RH WIND       PRES   REMARKS
ST LOUIS INTL  PTSUNNY   88  73  61 N8        29.99F HX  95
SPIRIT OF STL  PTSUNNY   87  75  67 W7        29.97F HX  96
ST CHARLES     PTSUNNY   85  75  72 SW3       29.98F HX  93

$$
MOZ072>076-082>087-097>100-106>115-252100-
...SOUTH CENTRAL AND SOUTHEAST MISSOURI...

CITY           SKY/WX    TMP DP  RH WIND       PRES   REMARKS
CAPE GIRARDEAU CLOUDY    76  72  87 CALM      29.98F
FARMINGTON     CLOUDY    88  74  63 NW9       30.00F HX  96
POPLAR BLUFF   LGT RAIN  76  72  87 NE5       29.98F
WEST PLAINS    SUNNY     89  69  51 W7        30.03F HX  93

$$




USA.gov is the U.S. government's official web portal to all federal, state and local government web resources and services.